DW1653 Weather Reports


time (UTC)temp
C
wind
direction
speed
KPH
gust
KPH
rain 1hr
cm
rain 24hr
cm
rain mn
cm
humidity
%
barometer
mb
20260506202325 20 217 9.7 24.1 0.00 0.00 0.00 76 1007.4
20260506201855 20 225 6.4 24.1 0.00 0.00 0.00 76 1007.4
20260506201325 20 221 8.0 19.3 0.00 0.00 0.00 76 1007.6
20260506200816 20 280 8.0 24.1 0.00 0.00 0.00 76 1007.6
20260506200328 20 178 11.3 24.1 0.00 0.00 0.00 77 1007.7
20260506195820 19 232 9.7 27.4 0.00 0.00 0.00 77 1007.6
20260506195351 19 289 9.7 25.7 0.00 0.00 0.00 77 1007.8
20260506194820 19 259 8.0 25.7 0.00 0.00 0.00 78 1007.7
20260506194315 19 252 12.9 25.7 0.00 0.00 0.00 79 1007.8
20260506193827 18 304 6.4 16.1 0.00 0.00 0.00 80 1007.9
20260506193323 18 169 4.8 20.9 0.00 0.00 0.00 80 1008.0
20260506192833 18 193 6.4 24.1 0.00 0.00 0.00 81 1008.0
20260506192346 18 265 8.0 24.1 0.00 0.00 0.00 82 1008.1
20260506191815 18 196 8.0 19.3 0.00 0.00 0.00 82 1008.1
20260506191326 18 238 6.4 22.5 0.00 0.00 0.00 82 1008.1
20260506190837 18 204 9.7 22.5 0.00 0.00 0.00 81 1008.1
20260506190326 18 178 9.7 24.1 0.00 0.00 0.00 81 1008.3
20260506185818 18 208 8.0 22.5 0.00 0.00 0.00 81 1008.2
20260506185329 18 192 9.7 22.5 0.00 0.00 0.00 82 1008.1
20260506184825 17 210 9.7 19.3 0.00 0.00 0.00 83 1008.1
20260506184317 17 169 9.7 20.9 0.00 0.00 0.00 84 1008.1
20260506183848 17 179 8.0 20.9 0.00 0.00 0.00 83 1008.2
20260506183319 17 159 8.0 25.7 0.00 0.00 0.00 83 1008.3
20260506182830 16 236 6.4 25.7 0.00 0.00 0.00 83 1008.3
20260506182321 16 196 9.7 19.3 0.00 0.00 0.00 83 1008.4
20260506181852 16 155 8.0 19.3 0.00 0.00 0.00 83 1008.4
20260506181322 16 152 9.7 20.9 0.00 0.00 0.00 83 1008.5
20260506180834 16 183 9.7 20.9 0.00 0.00 0.00 83 1008.6
20260506180324 16 196 8.0 19.3 0.00 0.00 0.00 83 1008.6
20260506175820 16 154 8.0 20.9 0.00 0.00 0.00 84 1008.8
20260506175331 16 172 8.0 17.7 0.00 0.00 0.00 85 1008.8
20260506174822 16 157 8.0 19.3 0.00 0.00 0.00 85 1008.9
20260506174314 16 114 8.0 20.9 0.00 0.00 0.00 85 1008.9
20260506173846 16 197 8.0 20.9 0.00 0.00 0.00 85 1008.9
20260506173315 16 171 4.8 20.9 0.00 0.00 0.00 85 1009.1
20260506172827 16 178 8.0 29.0 0.00 0.00 0.00 85 1009.0
20260506172317 16 138 6.4 17.7 0.00 0.00 0.00 84 1009.1
20260506171830 16 173 8.0 19.3 0.00 0.00 0.00 84 1009.2
20260506171326 16 167 8.0 19.3 0.00 0.00 0.00 83 1009.3
20260506170818 17 188 8.0 20.9 0.00 0.00 0.00 83 1009.2
20260506170330 17 186 9.7 24.1 0.00 0.00 0.00 83 1009.2
20260506165821 17 186 11.3 24.1 0.00 0.00 0.00 84 1009.4
20260506165352 17 173 11.3 24.1 0.00 0.00 0.00 85 1009.5
20260506164823 17 198 9.7 27.4 0.00 0.00 0.00 85 1009.8
20260506164354 17 150 9.7 27.4 0.00 0.00 0.00 84 1010.0
20260506163845 16 169 14.5 27.4 0.00 0.00 0.00 84 1010.2
20260506163315 17 182 9.7 30.6 0.00 0.00 0.00 84 1010.2
20260506162829 17 161 11.3 30.6 0.00 0.00 0.00 83 1010.3
20260506162324 17 161 14.5 25.7 0.00 0.00 0.00 82 1010.3
20260506161816 17 216 8.0 27.4 0.00 0.00 0.00 82 1010.3
20260506161327 17 209 12.9 27.4 0.00 0.00 0.00 82 1010.3
20260506160819 17 220 8.0 22.5 0.00 0.00 0.00 81 1010.3
20260506155833 17 204 11.3 24.1 0.00 0.00 0.00 80 1010.2
20260506155325 17 155 11.3 24.1 0.00 0.00 0.00 79 1010.2
20260506154818 17 161 11.3 25.7 0.00 0.00 0.00 79 1010.4
20260506154330 17 111 11.3 25.7 0.00 0.00 0.00 79 1010.5
20260506153822 17 202 9.7 22.5 0.00 0.00 0.00 79 1010.3
20260506153320 17 221 11.3 33.8 0.00 0.00 0.00 80 1010.3
20260506152852 17 184 9.7 33.8 0.00 0.00 0.00 80 1010.3
20260506152322 17 183 12.9 29.0 0.00 0.00 0.00 80 1010.3
20260506151814 17 190 11.3 27.4 0.00 0.00 0.00 80 1010.4
20260506151325 17 169 11.3 27.4 0.00 0.00 0.00 80 1010.5
20260506150836 17 199 12.9 29.0 0.00 0.00 0.00 79 1010.5
20260506150349 18 182 12.9 33.8 0.00 0.00 0.00 79 1010.5
20260506145820 18 142 11.3 35.4 0.00 0.00 0.00 78 1010.4
20260506145331 18 179 14.5 35.4 0.00 0.00 0.00 78 1010.5
20260506144825 18 184 14.5 35.4 0.00 0.00 0.00 78 1010.3
20260506144321 18 235 11.3 35.4 0.00 0.00 0.00 78 1010.4
20260506143832 18 181 12.9 27.4 0.00 0.00 0.00 79 1010.4
20260506143323 18 196 9.7 27.4 0.00 0.00 0.00 78 1010.4
20260506142816 17 160 9.7 17.7 0.00 0.00 0.00 77 1010.5
20260506142326 17 139 8.0 17.7 0.00 0.00 0.00 76 1010.5
20260506141838 18 168 8.0 20.9 0.00 0.00 0.00 75 1010.4
20260506141348 18 147 11.3 20.9 0.00 0.00 0.00 73 1010.4
20260506140839 19 209 8.0 16.1 0.00 0.00 0.00 72 1010.4
20260506140330 20 142 8.0 22.5 0.00 0.00 0.00 72 1010.4
20260506135824 20 163 8.0 22.5 0.00 0.00 0.00 72 1010.4
20260506135336 20 121 4.8 19.3 0.00 0.00 0.00 73 1010.5
20260506134846 20 186 9.7 19.3 0.00 0.00 0.00 73 1010.5
20260506134320 20 199 9.7 25.7 0.00 0.00 0.00 73 1010.7
20260506133832 20 199 11.3 27.4 0.00 0.00 0.00 73 1010.6
20260506133323 20 165 12.9 27.4 0.00 0.00 0.00 74 1010.6
20260506132855 20 136 9.7 24.1 0.00 0.00 0.00 75 1010.6
20260506132344 19 205 9.7 27.4 0.00 0.00 0.00 76 1011.0
20260506131815 19 223 8.0 24.1 0.00 0.00 0.00 76 1011.0
20260506131325 19 209 9.7 24.1 0.00 0.00 0.00 76 1011.0
20260506130817 18 178 8.0 19.3 0.00 0.00 0.00 77 1010.9
20260506130329 18 199 8.0 19.3 0.00 0.00 0.00 78 1010.9
20260506125824 18 157 6.4 19.3 0.00 0.00 0.00 79 1011.0
20260506125316 18 165 8.0 19.3 0.00 0.00 0.00 79 1010.9
20260506124828 17 69 6.4 22.5 0.00 0.00 0.00 80 1010.8
20260506124319 17 219 8.0 22.5 0.00 0.00 0.00 79 1010.7
20260506123851 17 207 8.0 20.9 0.00 0.00 0.00 79 1010.8
20260506123322 17 219 8.0 16.1 0.00 0.00 0.00 79 1010.8
20260506122834 18 178 8.0 19.3 0.00 0.00 0.00 79 1010.8
20260506122326 17 227 9.7 20.9 0.00 0.00 0.00 79 1011.0
20260506121821 17 221 8.0 20.9 0.00 0.00 0.00 79 1010.9
20260506121316 17 184 6.4 16.1 0.00 0.00 0.00 79 1010.9
20260506120831 17 200 6.4 17.7 0.00 0.00 0.00 79 1010.9
20260506120322 17 211 8.0 19.3 0.00 0.00 0.00 79 1011.0
20260506115833 17 173 4.8 22.5 0.00 0.00 0.00 79 1010.9
20260506115325 17 155 9.7 19.3 0.00 0.00 0.00 79 1010.9
20260506114836 17 175 8.0 19.3 0.00 0.00 0.00 80 1011.0
20260506114326 17 205 6.4 17.7 0.00 0.00 0.00 79 1011.1
20260506113838 17 155 8.0 19.3 0.00 0.00 0.00 80 1011.2
20260506113328 17 191 4.8 19.3 0.00 0.00 0.00 81 1011.2
20260506112822 16 187 8.0 20.9 0.00 0.00 0.00 82 1011.1
20260506112354 16 172 6.4 20.9 0.00 0.00 0.00 83 1011.2
20260506111824 16 150 8.0 22.5 0.00 0.00 0.00 84 1011.1
20260506111338 16 192 8.0 22.5 0.00 0.00 0.00 85 1011.1
20260506110829 16 228 4.8 17.7 0.00 0.00 0.00 86 1011.1
20260506110324 15 277 9.7 20.9 0.00 0.00 0.00 86 1011.1
20260506105819 15 179 6.4 16.1 0.00 0.00 0.00 87 1011.0
20260506105330 15 182 6.4 19.3 0.00 0.00 0.00 87 1011.0
20260506104825 15 188 6.4 19.3 0.00 0.00 0.00 87 1011.0
20260506104321 15 145 6.4 17.7 0.00 0.00 0.00 87 1011.0
20260506103831 15 201 6.4 16.1 0.00 0.00 0.00 87 1011.1
20260506103323 15 188 4.8 20.9 0.00 0.00 0.00 87 1011.1
20260506102834 15 182 8.0 20.9 0.00 0.00 0.00 87 1011.1
20260506102346 15 221 8.0 20.9 0.00 0.00 0.00 87 1010.9
20260506101815 15 155 8.0 17.7 0.00 0.00 0.00 86 1010.9
20260506101327 15 267 9.7 22.5 0.00 0.00 0.00 86 1010.9
20260506100818 15 222 8.0 22.5 0.00 0.00 0.00 86 1010.8
20260506100330 15 228 8.0 22.5 0.00 0.00 0.00 86 1010.9
20260506095826 15 198 9.7 17.7 0.00 0.00 0.00 86 1010.8
20260506095317 15 230 8.0 14.5 0.00 0.00 0.00 86 1010.8
20260506094832 15 227 6.4 14.5 0.00 0.00 0.00 86 1010.9
20260506094320 15 159 4.8 17.7 0.00 0.00 0.00 86 1010.9
20260506093833 15 219 6.4 17.7 0.00 0.00 0.00 86 1010.8
20260506093323 15 219 3.2 17.7 0.00 0.00 0.00 86 1010.9
20260506092814 15 213 6.4 22.5 0.00 0.00 0.00 87 1010.9
20260506092326 15 167 6.4 22.5 0.00 0.00 0.00 87 1011.0
20260506091838 15 213 6.4 22.5 0.00 0.00 0.00 87 1011.0
20260506091314 15 205 8.0 20.9 0.00 0.00 0.00 87 1011.0
20260506090827 15 168 8.0 19.3 0.00 0.00 0.00 87 1011.0
20260506090319 15 209 4.8 20.9 0.00 0.00 0.00 86 1011.1
20260506085831 15 226 9.7 20.9 0.00 0.00 0.00 86 1011.1
20260506085322 15 188 6.4 19.3 0.00 0.00 0.00 86 1011.2
20260506084854 15 194 8.0 14.5 0.00 0.00 0.00 86 1011.2
20260506084324 15 167 6.4 19.3 0.00 0.00 0.00 86 1011.1
20260506083816 15 213 8.0 25.7 0.00 0.00 0.00 86 1011.1
20260506083327 15 189 4.8 25.7 0.00 0.00 0.00 86 1011.2
20260506082827 15 228 8.0 17.7 0.00 0.00 0.00 86 1011.2
20260506082317 15 199 8.0 16.1 0.00 0.00 0.00 86 1011.2
20260506081829 16 213 8.0 20.9 0.00 0.00 0.00 86 1011.1
20260506081340 16 178 6.4 22.5 0.00 0.00 0.00 86 1011.2
20260506080831 16 190 9.7 22.5 0.00 0.00 0.00 85 1011.2
20260506080321 16 177 9.7 22.5 0.00 0.00 0.00 85 1011.1
20260506072829 16 197 6.4 12.9 0.00 0.00 0.00 85 1011.4
20260506072341 16 190 6.4 14.5 0.00 0.00 0.00 85 1011.5
20260506071830 16 200 6.4 22.5 0.00 0.00 0.00 84 1011.4
20260506071322 16 165 8.0 22.5 0.00 0.00 0.00 84 1011.5
20260506070833 16 216 6.4 19.3 0.00 0.00 0.00 84 1011.4
20260506070324 16 201 8.0 22.5 0.00 0.00 0.00 84 1011.4
20260506062319 16 207 11.3 24.1 0.00 0.00 0.00 82 1011.4
20260506061850 16 153 6.4 20.9 0.00 0.00 0.00 82 1011.3
20260506061325 16 192 8.0 16.1 0.00 0.00 0.00 82 1011.4
20260506060816 16 222 8.0 14.5 0.00 0.00 0.00 82 1011.4
20260506060328 16 219 6.4 16.1 0.00 0.00 0.00 82 1011.4
20260506051330 16 181 6.4 20.9 0.00 0.00 0.00 83 1011.8
20260506050822 16 206 8.0 20.9 0.00 0.00 0.00 82 1011.8
20260506050333 16 239 9.7 25.7 0.00 0.00 0.00 82 1011.9
20260506044827 16 205 12.9 25.7 0.00 0.00 0.00 82 1012.0
20260506044323 16 224 12.9 25.7 0.00 0.00 0.00 81 1012.0
20260506043855 16 209 9.7 25.7 0.00 0.00 0.00 81 1012.0
20260506043345 16 211 9.7 24.1 0.00 0.00 0.00 81 1012.0
20260506042815 16 196 8.0 20.9 0.00 0.00 0.00 81 1012.0
20260506042326 16 206 6.4 30.6 0.00 0.00 0.00 81 1012.0
20260506041820 16 160 12.9 30.6 0.00 0.00 0.00 80 1012.0
20260506041332 16 220 9.7 27.4 0.00 0.00 0.00 80 1012.0
20260506040823 16 186 9.7 27.4 0.00 0.00 0.00 80 1011.9
20260506040315 17 198 11.3 24.1 0.00 0.00 0.00 79 1011.9
20260506035824 17 195 9.7 24.1 0.00 0.00 0.00 79 1011.8
20260506035319 17 151 11.3 25.7 0.00 0.00 0.00 79 1011.9
20260506034834 17 174 9.7 25.7 0.00 0.00 0.00 78 1011.9
20260506034326 17 209 12.9 24.1 0.00 0.00 0.00 78 1012.0
20260506033817 17 203 12.9 24.1 0.00 0.00 0.00 78 1011.9
20260506033329 17 138 9.7 25.7 0.00 0.00 0.00 77 1011.9
20260506032820 17 200 11.3 25.7 0.00 0.00 0.00 77 1011.9
20260506032332 17 163 9.7 25.7 0.00 0.00 0.00 77 1011.9
20260506031824 17 197 12.9 25.7 0.00 0.00 0.00 76 1011.9
20260506031319 17 105 8.0 22.5 0.00 0.00 0.00 75 1011.9
20260506030831 17 165 11.3 27.4 0.00 0.00 0.00 75 1011.9
20260506030343 18 231 12.9 27.4 0.00 0.00 0.00 74 1011.9
20260506025833 18 194 11.3 25.7 0.00 0.00 0.00 74 1012.0
20260506025325 18 188 14.5 29.0 0.00 0.00 0.00 73 1011.9
20260506024816 18 209 9.7 29.0 0.00 0.00 0.00 73 1012.0
20260506024328 18 207 11.3 29.0 0.00 0.00 0.00 73 1012.0
20260506023819 18 181 11.3 29.0 0.00 0.00 0.00 72 1012.0
20260506023315 18 232 12.9 32.2 0.00 0.00 0.00 71 1012.0
20260506022826 18 231 12.9 32.2 0.00 0.00 0.00 71 1012.0
20260506022321 18 201 12.9 37.0 0.00 0.00 0.00 72 1012.0
20260506021834 18 204 11.3 37.0 0.00 0.00 0.00 72 1012.1
20260506021325 18 213 11.3 27.4 0.00 0.00 0.00 73 1012.1
20260506020837 18 234 12.9 27.4 0.00 0.00 0.00 74 1012.1
20260506020327 18 167 11.3 22.5 0.00 0.00 0.00 74 1012.1
20260506015822 18 175 12.9 30.6 0.00 0.00 0.00 73 1012.1
20260506015333 18 201 14.5 30.6 0.00 0.00 0.00 73 1012.0
20260506014829 18 174 11.3 29.0 0.00 0.00 0.00 72 1012.0
20260506014320 18 161 11.3 29.0 0.00 0.00 0.00 71 1012.0
20260506013343 19 188 14.5 30.6 0.00 0.00 0.00 69 1011.9
20260506012834 19 200 14.5 38.6 0.00 0.00 0.00 69 1011.9
20260506012324 19 270 14.5 38.6 0.00 0.00 0.00 68 1011.8
20260506011816 19 189 11.3 33.8 0.00 0.00 0.00 67 1011.8
20260506011326 19 191 14.5 33.8 0.00 0.00 0.00 67 1011.8
20260506010818 19 201 14.5 33.8 0.00 0.00 0.00 67 1011.6
20260506010333 19 182 11.3 32.2 0.00 0.00 0.00 67 1011.5
20260506005824 19 160 9.7 32.2 0.00 0.00 0.00 68 1011.6
20260506005338 19 167 11.3 30.6 0.00 0.00 0.00 67 1011.5
20260506004848 19 232 14.5 33.8 0.00 0.00 0.00 65 1011.4
20260506004318 19 187 12.9 29.0 0.00 0.00 0.00 65 1011.4
20260506003830 19 191 12.9 25.7 0.00 0.00 0.00 66 1011.4
20260506003322 19 244 9.7 22.5 0.00 0.00 0.00 67 1011.3
20260506002834 19 213 11.3 24.1 0.00 0.00 0.00 68 1011.3
20260506002326 19 190 8.0 29.0 0.00 0.00 0.00 68 1011.3
20260506001822 19 135 11.3 25.7 0.00 0.00 0.00 68 1011.3
20260506001313 19 194 12.9 24.1 0.00 0.00 0.00 67 1011.2
20260506000828 20 234 8.0 22.5 0.00 0.00 0.00 66 1011.2
20260506000319 20 150 8.0 29.0 0.00 0.00 0.00 64 1011.2
20260505235813 20 189 9.7 35.4 0.00 0.00 0.00 61 1011.1
20260505235328 20 133 9.7 35.4 0.00 0.00 0.00 61 1011.0
20260505234819 20 207 11.3 43.5 0.00 0.00 0.00 61 1010.9
20260505234331 20 211 12.9 43.5 0.00 0.00 0.00 62 1010.8
20260505233827 20 218 12.9 30.6 0.00 0.00 0.00 63 1010.8
20260505233321 20 188 12.9 30.6 0.00 0.00 0.00 66 1010.7
20260505232833 20 144 9.7 27.4 0.00 0.00 0.00 66 1010.7
20260505232326 20 199 11.3 35.4 0.00 0.00 0.00 65 1010.6
20260505231817 20 136 16.1 35.4 0.00 0.00 0.00 65 1010.5
20260505231328 20 146 12.9 32.2 0.00 0.00 0.00 64 1010.5
20260505230820 20 178 12.9 37.0 0.00 0.00 0.00 64 1010.3
20260505230331 20 178 14.5 37.0 0.00 0.00 0.00 64 1010.3
20260505225825 21 194 11.3 33.8 0.00 0.00 0.00 64 1010.2
20260505225320 21 148 14.5 33.8 0.00 0.00 0.00 63 1010.2
20260505224832 21 171 11.3 35.4 0.00 0.00 0.00 62 1010.1
20260505224322 21 217 11.3 29.0 0.00 0.00 0.00 62 1010.2
20260505223814 21 191 12.9 33.8 0.00 0.00 0.00 62 1010.1
20260505223345 21 138 19.3 33.8 0.00 0.00 0.00 62 1010.1
20260505222835 21 232 12.9 37.0 0.00 0.00 0.00 63 1010.0
20260505222327 21 182 14.5 37.0 0.00 0.00 0.00 64 1010.0
20260505221818 20 176 14.5 37.0 0.00 0.00 0.00 64 1010.0
20260505221314 20 171 16.1 37.0 0.00 0.00 0.00 65 1010.0
20260505220825 21 215 17.7 32.2 0.00 0.00 0.00 64 1010.0
20260505220317 21 301 12.9 38.6 0.00 0.00 0.00 63 1010.0
20260505215829 21 178 19.3 38.6 0.00 0.00 0.00 63 1009.9
20260505215320 21 244 16.1 35.4 0.00 0.00 0.00 63 1009.9
20260505214830 21 178 9.7 30.6 0.00 0.00 0.00 63 1009.8
20260505214322 21 184 11.3 30.6 0.00 0.00 0.00 63 1009.7
20260505213833 21 166 12.9 41.8 0.00 0.00 0.00 62 1009.8
20260505213345 21 173 16.1 41.8 0.00 0.00 0.00 62 1009.7
20260505212823 21 161 12.9 30.6 0.00 0.00 0.00 62 1009.7
20260505212333 21 207 14.5 27.4 0.00 0.00 0.00 63 1009.6
20260505211824 21 146 12.9 32.2 0.00 0.00 0.00 64 1009.6
20260505210850 21 242 17.7 33.8 0.00 0.00 0.00 64 1009.5
20260505210320 21 94 11.3 27.4 0.00 0.00 0.00 64 1009.5
20260505205835 21 142 14.5 33.8 0.00 0.00 0.00 64 1009.4
20260505205324 21 136 16.1 41.8 0.00 0.00 0.00 64 1009.4
20260505204816 21 157 14.5 41.8 0.00 0.00 0.00 64 1009.4
20260505204327 21 229 14.5 35.4 0.00 0.00 0.00 65 1009.5
20260505203822 21 183 12.9 35.4 0.00 0.00 0.00 66 1009.5
20260505203314 21 239 12.9 43.5 0.00 0.00 0.00 66 1009.4
20260505202828 21 191 17.7 43.5 0.00 0.00 0.00 66 1009.5